Flag for Germany Weather past 2 weeks in Koblenz, Rhineland-Palatinate, Germany

Now
63 °F

Passing clouds.


Feels Like: 63 °F
Forecast: 53 / 76 °F
Wind: 7 mph from East

Location: Buechel

Current Time: Sep 17, 2014 at 12:12:30 PM

Latest Report: Sep 17, 2014 at 11:20 AM


Visibility: 5 mi

Pressure: 29.95 "Hg

Humidity: 83%

Dew point: 57 °F

Location of KoblenzLocation

Historic Weather in Koblenz — Graph

°F

Koblenz temperature yesterday

Maximum temperature yesterday: 70 °F (at 4:20 PM)
Minimum temperature yesterday: 54 °F (at 4:20 AM)
Average temperature yesterday: 60 °F

Past Weeks' High & Low Weather Summary

 TemperatureHumidityPressure
High72 °F (Sep 5, 4:20 PM)100% (Sep 7, 4:20 AM)30.21 "Hg (Sep 7, 4:20 AM)
Low48 °F (Sep 12, 3:20 AM)52% (Sep 2, 2:20 PM)29.92 "Hg (Sep 6, 7:20 AM)
Average58 °F81%30.07 "Hg
* Reported Sep 2 10:20 AM — Sep 17 10:20 AM, Koblenz, Weather by CustomWeather, © 2014

Note: Actual official high and low records may vary slightly from our data, if they occured in-between our weather recording intervals... More about our weather records

Advertising

Koblenz weather history for previous 24 hours

 ConditionsComfort  
Time TempWeatherWind HumidityBarometerVisibility
10:20 AM
Sep 17
61 °FPassing clouds.8 mph88%29.95 "Hg4 mi
9:20 AM59 °FFog.8 mph88%29.95 "Hg3 mi
8:20 AM57 °FFog.7 mph88%29.95 "Hg3 mi
7:20 AM57 °FFog.7 mph88%29.95 "Hg3 mi
6:20 AM57 °FCool.7 mph88%29.95 "Hg5 mi
5:20 AM55 °FCool.5 mph94%29.95 "Hg5 mi
4:20 AM57 °FCool.7 mph88%29.95 "Hg5 mi
3:20 AM57 °FCool.6 mph88%29.95 "HgN/A
2:20 AM57 °FCool.5 mph88%29.95 "HgN/A
1:20 AM59 °FCool.5 mph88%29.95 "HgN/A
12:20 AM61 °FCool.6 mph83%29.98 "HgN/A
11:20 PM
Sep 16
61 °FCool.6 mph83%29.98 "HgN/A
10:20 PM63 °FMild.5 mph73%29.98 "HgN/A
9:20 PM63 °FMild.5 mph73%29.98 "HgN/A
8:20 PM64 °FMild.5 mph73%29.98 "HgN/A
7:20 PM66 °FMild.3 mph64%29.98 "HgN/A
6:20 PM68 °FMild.5 mph60%29.98 "HgN/A
5:20 PM68 °FScattered clouds.5 mph60%29.98 "HgN/A
4:20 PM70 °FScattered clouds.6 mph57%29.98 "HgN/A
3:20 PM68 °FScattered clouds.6 mph60%29.98 "HgN/A
2:20 PM66 °FScattered clouds.5 mph68%29.98 "HgN/A
1:20 PM63 °FScattered clouds.6 mph83%30.01 "HgN/A
12:20 PM61 °FScattered clouds.6 mph88%30.01 "Hg5 mi
Weather by CustomWeather, © 2014

See weather overviewHow to use our weather pages